Change the Weather History Date:

Wednesday, May 15, 2013

  Actual Average (KFWN) Record (KFWN)
Temperature  
Mean Temperature 56 °F -  
Max Temperature 73 °F 70 °F 85 °F (1955)
Min Temperature 39 °F 43 °F 29 °F (1969)
Degree Days  
Heating Degree Days 9    
Growing Degree Days 6 (Base 50)    
Moisture  
Dew Point 46 °F    
Average Humidity 65    
Maximum Humidity 90    
Minimum Humidity 49    
Precipitation  
Precipitation 0.02 in - - ()
Sea Level Pressure  
Sea Level Pressure 29.87 in    
Wind  
Wind Speed 2 mph (SSW)    
Max Wind Speed 10 mph    
Max Gust Speed 18 mph    
Averages and records for this station are not official NWS values.
T = Trace of Precipitation, MM = Missing Value Source: NWS Daily Summary

Daily Weather History Graph

Daily Weather History Graph

Search for Another Location

Airport or City:

Trip Planner

Search our weather history database for the weather conditions in past years. The results will help you decide how hot, cold, wet, or windy it might be!

Date:

Astronomy

May. 15, 2013 Rise Set
Actual Time 5:40 AM EDT 8:10 PM EDT
Civil Twilight 5:09 AM EDT 8:41 PM EDT
Nautical Twilight 4:30 AM EDT 9:20 PM EDT
Astronomical Twilight 3:47 AM EDT 10:04 PM EDT
Moon 10:14 AM EDT (5/15) No Moon Set
Length of Visible Light 15h 32m
Length of Day
14h 29m
Waxing Crescent, 26% of the Moon is Illuminated
May 15
Waxing Crescent
May 18
First Quarter
May 25
Full
May 31
Last Quarter
Jun 8
New

Hourly Weather History & Observations

Time (EDT) Temp. Dew Point Humidity Pressure Visibility Wind Dir Wind Speed Gust Speed Precip Events Conditions
12:54 AM 39.9 °F 36.0 °F 86% 30.07 in - Calm Calm - N/A   Unknown
1:54 AM 41.0 °F 36.0 °F 82% 30.05 in - Calm Calm - N/A   Unknown
2:54 AM 42.1 °F 36.0 °F 79% 30.04 in - Calm Calm - N/A   Unknown
3:54 AM 44.1 °F 37.9 °F 79% 30.03 in - Calm Calm - N/A   Unknown
4:54 AM 45.0 °F 37.9 °F 76% 30.02 in - Calm Calm - N/A   Unknown
5:54 AM 45.0 °F 39.0 °F 80% 30.02 in - Calm Calm - N/A   Unknown
6:54 AM 46.9 °F 39.9 °F 77% 30.01 in - Calm Calm - N/A   Unknown
7:54 AM 53.1 °F 37.0 °F 55% 30.00 in - SSW 3.5 mph - N/A   Unknown
8:54 AM 55.9 °F 41.0 °F 57% 29.98 in - Variable 6.9 mph - N/A   Unknown
9:54 AM 59.0 °F 39.9 °F 49% 29.96 in - Variable 6.9 mph - N/A   Unknown
10:54 AM 57.9 °F 42.1 °F 56% 29.97 in - SSW 4.6 mph - N/A   Unknown
11:54 AM 57.9 °F 45.0 °F 62% 29.93 in - Calm Calm - 0.01 in   Unknown
12:54 PM 64.0 °F 45.0 °F 50% 29.87 in - Variable 4.6 mph - N/A   Unknown
1:54 PM 64.0 °F 46.0 °F 52% 29.87 in - SSW 4.6 mph - N/A   Unknown
2:54 PM 64.9 °F 48.9 °F 56% 29.76 in - Variable 4.6 mph - 0.01 in   Unknown
3:54 PM 69.1 °F 51.1 °F 53% 29.72 in - South 9.2 mph - N/A   Unknown
4:54 PM 71.1 °F 53.1 °F 53% 29.71 in - SSW 10.4 mph 18.4 mph N/A   Unknown
5:54 PM 73.0 °F 54.0 °F 51% 29.69 in - SW 8.1 mph 17.3 mph N/A   Unknown
6:54 PM 72.0 °F 55.0 °F 55% 29.67 in - SSW 5.8 mph - N/A   Unknown
7:54 PM 69.1 °F 55.0 °F 61% 29.67 in - SW 4.6 mph - N/A   Unknown
8:54 PM 68.0 °F 55.0 °F 63% 29.68 in - SSW 5.8 mph - N/A   Unknown
9:54 PM 66.9 °F 55.0 °F 66% 29.72 in - Variable 5.8 mph - N/A   Unknown
10:54 PM 62.1 °F 55.0 °F 78% 29.73 in - Calm Calm - N/A   Unknown
11:54 PM 57.9 °F 55.0 °F 90% 29.74 in - Calm Calm - N/A   Unknown